Location: Vlissingen
(51.4500°N, 3.5830°E)
Time: 13:52:04
(UTC+01:00)

N. Korean satellite - Pass Details

Date: 01 December 2021
Orbit: 447 x 490 km, 97.3° (Epoch: 27 January)

Event Time Altitude Azimuth Distance (km) Brightness Sun altitude
Rises 07:13:24 0° 1° (N) 2,485 10.0 -11.2°
Reaches altitude 10° 07:15:50 10° 343° (NNW) 1,599 8.8 -10.8°
Maximum altitude 07:18:20 19° 296° (WNW) 1,128 7.8 -10.5°
Drops below altitude 10° 07:20:50 10° 249° (WSW) 1,580 8.7 -10.1°
Sets 07:23:13 0° 231° (SW) 2,444 9.8 -9.8°
